WJA554 CYCD-CYYC

Flight info

Callsign WJA554
Flight time N/A
Altitude 35000
Route DCT VIXOR DCT HUH DCT DAPED DCT PETLI DCT MENBO Q983 NORET IGVEP7
Aircraft B38M/M-SDE1FGHILORVWXY/HB1

Departure

Time 2026-05-05 19:49
Airport Nanaimo Airport (CYCD)

Arrival

Time N/A
Airport Calgary International Airport (CYYC)
Time Latitude Longitude Altitude Speed Heading
2026-05-05 19:29 49.05342 -123.87330 103 ft 0 kts 300°
2026-05-05 19:38 49.05341 -123.87329 103 ft 1 kts 300°
2026-05-05 19:39 49.05335 -123.87313 103 ft 4 kts
2026-05-05 19:39 49.05335 -123.87315 103 ft 4 kts 333°
2026-05-05 19:39 49.05328 -123.87302 102 ft 4 kts 305°
2026-05-05 19:39 49.05311 -123.87274 102 ft 4 kts 329°
2026-05-05 19:40 49.05291 -123.87264 102 ft 1 kts
2026-05-05 19:40 49.05287 -123.87265 102 ft 0 kts
2026-05-05 19:43 49.05291 -123.87264 102 ft 3 kts
2026-05-05 19:43 49.05381 -123.87220 103 ft 19 kts 44°
2026-05-05 19:43 49.05420 -123.87161 102 ft 0 kts 46°
2026-05-05 19:45 49.05425 -123.87153 103 ft 3 kts 45°
2026-05-05 19:45 49.05465 -123.87091 101 ft 13 kts 52°
2026-05-05 19:45 49.05438 -123.87018 102 ft 13 kts 176°
2026-05-05 19:45 49.05313 -123.87019 104 ft 23 kts 182°
2026-05-05 19:46 49.05123 -123.87024 105 ft 32 kts 181°
2026-05-05 19:46 49.04867 -123.87024 105 ft 41 kts 180°
2026-05-05 19:46 49.04623 -123.87051 104 ft 19 kts 189°
2026-05-05 19:46 49.04558 -123.87036 103 ft 5 kts 87°
2026-05-05 19:47 49.04572 -123.87024 103 ft 2 kts 347°
2026-05-05 19:47 49.04588 -123.87031 103 ft 3 kts 347°
2026-05-05 19:47 49.04613 -123.87035 104 ft 4 kts 358°
2026-05-05 19:47 49.04615 -123.87035 104 ft 0 kts 358°
2026-05-05 19:48 49.04749 -123.87035 104 ft 60 kts
2026-05-05 19:48 49.05453 -123.87017 103 ft 141 kts
2026-05-05 19:48 49.06620 -123.87012 332 ft 188 kts 360°
2026-05-05 19:49 49.07984 -123.86986 1277 ft 202 kts
2026-05-05 19:49 49.09421 -123.86774 2193 ft 210 kts
2026-05-05 19:49 49.10934 -123.86529 2892 ft 230 kts
2026-05-05 19:49 49.12586 -123.86213 3509 ft 247 kts 10°
2026-05-05 19:50 49.14077 -123.85009 4536 ft 246 kts 41°
2026-05-05 19:50 49.15036 -123.82798 5339 ft 259 kts 69°
2026-05-05 19:50 49.15182 -123.80069 6358 ft 262 kts 100°
2026-05-05 19:50 49.14482 -123.77469 7201 ft 274 kts 126°
2026-05-05 19:51 49.13073 -123.75390 7855 ft 290 kts 144°
2026-05-05 19:51 49.11330 -123.73770 8735 ft 295 kts 157°
2026-05-05 19:51 49.09430 -123.72577 9709 ft 299 kts 157°
2026-05-05 19:51 49.07485 -123.71331 10514 ft 308 kts 157°
2026-05-05 19:52 49.05448 -123.70005 10969 ft 328 kts 156°
2026-05-05 19:52 49.03292 -123.68587 11437 ft 346 kts 156°
2026-05-05 19:52 49.01042 -123.67102 12058 ft 357 kts 156°
2026-05-05 19:52 48.98757 -123.65591 12891 ft 360 kts 156°
2026-05-05 19:53 48.96446 -123.64062 13647 ft 366 kts 156°
2026-05-05 19:53 48.94091 -123.62507 14340 ft 371 kts 155°
2026-05-05 19:53 48.91712 -123.60936 15013 ft 375 kts 155°
2026-05-05 19:53 48.89331 -123.59367 15679 ft 380 kts 155°
2026-05-05 19:54 48.86858 -123.57735 16323 ft 385 kts 155°
2026-05-05 19:54 48.84416 -123.56129 16953 ft 390 kts 155°
2026-05-05 19:54 48.81934 -123.54499 17599 ft 394 kts 155°
2026-05-05 19:54 48.79488 -123.52602 18193 ft 396 kts 142°
2026-05-05 19:55 48.77484 -123.49749 18752 ft 395 kts 124°
2026-05-05 19:55 48.76156 -123.46137 19277 ft 393 kts 106°
2026-05-05 19:55 48.75587 -123.42121 19786 ft 390 kts 89°
2026-05-05 19:55 48.75771 -123.38028 20281 ft 388 kts 74°
2026-05-05 19:56 48.76485 -123.34089 20792 ft 390 kts 69°
2026-05-05 19:56 48.77315 -123.30170 21311 ft 392 kts 68°
2026-05-05 19:56 48.78206 -123.26249 21833 ft 395 kts 66°
2026-05-05 19:56 48.79132 -123.22299 22364 ft 399 kts 66°
2026-05-05 19:57 48.80078 -123.18328 22920 ft 401 kts 65°
2026-05-05 19:57 48.81034 -123.14359 23428 ft 405 kts 65°
2026-05-05 19:57 48.82004 -123.10339 23867 ft 408 kts 65°
2026-05-05 19:57 48.82985 -123.06277 24302 ft 411 kts 65°
2026-05-05 19:58 48.83968 -123.02197 24713 ft 414 kts 65°
2026-05-05 19:58 48.84958 -122.98084 25123 ft 416 kts 65°
2026-05-05 19:58 48.85955 -122.93936 25526 ft 419 kts 66°
2026-05-05 19:58 48.86956 -122.89763 25927 ft 422 kts 66°
2026-05-05 19:59 48.87964 -122.85550 26321 ft 425 kts 66°
2026-05-05 19:59 48.88973 -122.81331 26733 ft 427 kts 65°
2026-05-05 19:59 48.89983 -122.77094 27146 ft 429 kts 65°
2026-05-05 19:59 48.91000 -122.72822 27528 ft 432 kts 65°
2026-05-05 20:00 48.92020 -122.68525 27900 ft 434 kts 66°
2026-05-05 20:00 48.93049 -122.64185 28251 ft 437 kts 66°
2026-05-05 20:00 48.94082 -122.59824 28606 ft 440 kts 66°
2026-05-05 20:00 48.95094 -122.55427 28943 ft 443 kts 66°
2026-05-05 20:01 48.96109 -122.50982 29297 ft 445 kts 66°
2026-05-05 20:01 48.97130 -122.46519 29636 ft 448 kts 66°
2026-05-05 20:01 48.98148 -122.42060 29981 ft 450 kts 66°
2026-05-05 20:01 48.99176 -122.37549 30300 ft 452 kts 66°
2026-05-05 20:02 49.00206 -122.33018 30589 ft 454 kts 66°
2026-05-05 20:02 49.01241 -122.28454 30871 ft 456 kts 66°
2026-05-05 20:02 49.02277 -122.23876 31155 ft 458 kts 66°
2026-05-05 20:02 49.03314 -122.19286 31427 ft 460 kts 66°
2026-05-05 20:03 49.04357 -122.14657 31717 ft 462 kts 66°
2026-05-05 20:03 49.05398 -122.10031 32056 ft 462 kts 66°
2026-05-05 20:03 49.06433 -122.05418 32453 ft 461 kts 66°
2026-05-05 20:03 49.07467 -122.00798 32856 ft 460 kts 66°
2026-05-05 20:04 49.08497 -121.96192 33249 ft 459 kts 66°
2026-05-05 20:04 49.09525 -121.91579 33627 ft 458 kts 66°
2026-05-05 20:04 49.10547 -121.86983 33994 ft 458 kts 66°
2026-05-05 20:04 49.11569 -121.82380 34328 ft 457 kts 66°
2026-05-05 20:05 49.12587 -121.77781 34652 ft 456 kts 66°
2026-05-05 20:05 49.13602 -121.73194 34940 ft 457 kts 66°
2026-05-05 20:05 49.14598 -121.68620 35014 ft 458 kts 69°
2026-05-05 20:06 49.15584 -121.58952 34969 ft 463 kts 76°
2026-05-05 20:06 49.16472 -121.49240 35048 ft 463 kts 76°
2026-05-05 20:06 49.16908 -121.44360 34940 ft 461 kts 76°
2026-05-05 20:07 49.17337 -121.39528 35019 ft 460 kts 76°
2026-05-05 20:07 49.18192 -121.29817 34971 ft 461 kts 76°
2026-05-05 20:08 49.19040 -121.20091 35006 ft 463 kts 76°
2026-05-05 20:08 49.19877 -121.10402 35006 ft 463 kts 76°
2026-05-05 20:09 49.20710 -121.00654 34980 ft 461 kts 76°
2026-05-05 20:09 49.21530 -120.90947 34955 ft 461 kts 76°
2026-05-05 20:10 49.22346 -120.81213 35003 ft 462 kts 76°
2026-05-05 20:10 49.23153 -120.71464 34984 ft 462 kts 76°
2026-05-05 20:11 49.23952 -120.61732 35005 ft 460 kts 76°
2026-05-05 20:11 49.24737 -120.52045 34978 ft 461 kts 76°
2026-05-05 20:12 49.25519 -120.42297 34985 ft 461 kts 76°
2026-05-05 20:12 49.26292 -120.32566 34981 ft 461 kts 76°
2026-05-05 20:13 49.27057 -120.22817 34989 ft 461 kts 76°
2026-05-05 20:13 49.27812 -120.13100 34991 ft 460 kts 76°
2026-05-05 20:14 49.28560 -120.03368 34968 ft 459 kts 76°
2026-05-05 20:14 49.29298 -119.93647 34974 ft 461 kts 76°
2026-05-05 20:15 49.30029 -119.83905 34955 ft 459 kts 76°
2026-05-05 20:15 49.30753 -119.74188 34983 ft 461 kts 76°
2026-05-05 20:16 49.31495 -119.64455 34947 ft 456 kts 71°
2026-05-05 20:16 49.32416 -119.59948 34953 ft 437 kts 56°
2026-05-05 20:16 49.33775 -119.55789 34937 ft 438 kts 56°
2026-05-05 20:17 49.36478 -119.47435 34955 ft 437 kts 56°
2026-05-05 20:17 49.39200 -119.39118 34951 ft 438 kts 56°
2026-05-05 20:18 49.41930 -119.30765 34970 ft 436 kts 55°
2026-05-05 20:18 49.44641 -119.22529 34824 ft 425 kts 51°
2026-05-05 20:18 49.46221 -119.18690 34217 ft 427 kts 45°
2026-05-05 20:19 49.48098 -119.15067 33109 ft 439 kts 39°
2026-05-05 20:19 49.50241 -119.11701 32367 ft 442 kts 36°
2026-05-05 20:19 49.52485 -119.08551 32456 ft 429 kts 34°
2026-05-05 20:19 49.53231 -119.07548 32578 ft 423 kts 33°
2026-05-05 20:22 49.54658 -119.05734 32891 ft 410 kts 31°
2026-05-05 20:22 49.56846 -119.03022 33078 ft 398 kts 28°
2026-05-05 20:22 49.59050 -119.00370 32582 ft 408 kts 33°
2026-05-05 20:22 49.60657 -118.98037 32135 ft 418 kts 37°
2026-05-05 20:23 49.62065 -118.95783 31927 ft 418 kts 37°
2026-05-05 20:24 49.62520 -118.95086 31945 ft 415 kts 36°
2026-05-05 20:26 49.65381 -118.90869 31882 ft 406 kts 34°
2026-05-05 20:26 49.69414 -118.84943 32404 ft 382 kts 38°
2026-05-05 20:26 49.71278 -118.82118 32315 ft 371 kts 27°
2026-05-05 20:27 49.73515 -118.80149 31576 ft 375 kts 18°
2026-05-05 20:27 49.75119 -118.79112 31236 ft 376 kts 13°
2026-05-05 20:27 49.77653 -118.78336 30622 ft 370 kts
2026-05-05 20:27 49.80655 -118.78295 30295 ft 354 kts 352°
2026-05-05 20:28 49.83039 -118.79107 29715 ft 349 kts 353°
2026-05-05 20:28 49.85407 -118.78885 29867 ft 338 kts
2026-05-05 20:29 49.87658 -118.77928 29911 ft 336 kts 17°
2026-05-05 20:29 49.89660 -118.76013 29903 ft 344 kts 35°
2026-05-05 20:29 49.91139 -118.73035 29912 ft 357 kts 54°
2026-05-05 20:29 49.92054 -118.69377 29381 ft 378 kts 64°
2026-05-05 20:30 49.92457 -118.65292 29403 ft 390 kts 81°
2026-05-05 20:30 49.91989 -118.61112 29667 ft 399 kts 101°
2026-05-05 20:30 49.90667 -118.57320 29898 ft 404 kts 121°
2026-05-05 20:30 49.88655 -118.54250 29951 ft 410 kts 140°
2026-05-05 20:31 49.86132 -118.52178 29899 ft 413 kts 160°
2026-05-05 20:31 49.83342 -118.51342 29876 ft 407 kts 180°
2026-05-05 20:31 49.80577 -118.51741 29916 ft 393 kts 199°
2026-05-05 20:31 49.78085 -118.53233 29891 ft 376 kts 217°
2026-05-05 20:32 49.76064 -118.55582 29908 ft 354 kts 234°
2026-05-05 20:32 49.74455 -118.58347 29953 ft 341 kts 239°
2026-05-05 20:32 49.72936 -118.61139 29955 ft 336 kts 238°
2026-05-05 20:32 49.71233 -118.63644 29911 ft 343 kts 224°
2026-05-05 20:33 49.69174 -118.65577 29645 ft 355 kts 207°
2026-05-05 20:33 49.66797 -118.66574 29629 ft 354 kts 184°
2026-05-05 20:33 49.64412 -118.66211 29639 ft 345 kts 157°
2026-05-05 20:33 49.62042 -118.64935 28357 ft 380 kts 162°
2026-05-05 20:34 49.59558 -118.63972 28871 ft 351 kts 163°
2026-05-05 20:34 49.57256 -118.62906 28767 ft 349 kts 154°
2026-05-05 20:34 49.55137 -118.61273 28830 ft 331 kts 134°
2026-05-05 20:34 49.53556 -118.58774 28325 ft 325 kts 110°
2026-05-05 20:35 49.53049 -118.57459 27749 ft 337 kts 103°
2026-05-05 20:35 49.52536 -118.54693 26860 ft 338 kts 78°
2026-05-05 20:36 49.52946 -118.51384 26952 ft 299 kts 52°
2026-05-05 20:36 49.54135 -118.48967 26859 ft 274 kts 27°
2026-05-05 20:36 49.55803 -118.47802 26760 ft 258 kts
2026-05-05 20:36 49.57545 -118.47913 26730 ft 249 kts 343°
2026-05-05 20:37 49.59100 -118.49043 26770 ft 248 kts 328°
2026-05-05 20:37 49.60379 -118.50842 26777 ft 252 kts 316°
2026-05-05 20:37 49.61381 -118.53103 26779 ft 259 kts 307°
2026-05-05 20:37 49.62122 -118.55672 26718 ft 265 kts 298°
2026-05-05 20:38 49.62582 -118.58452 26650 ft 271 kts 288°
2026-05-05 20:38 49.62694 -118.61372 26683 ft 276 kts 277°
2026-05-05 20:38 49.62342 -118.64321 26725 ft 286 kts 260°
2026-05-05 20:38 49.62145 -118.65091 26732 ft 290 kts 254°
2026-05-05 20:41 49.61783 -118.66119 26746 ft 295 kts 244°
2026-05-05 20:41 49.60265 -118.68310 26845 ft 309 kts 211°
2026-05-05 20:41 49.58156 -118.68873 26691 ft 313 kts 157°